www.pogodaiklimat.ru

Погода и климат >> Архив погоды >> Аргентина >> Сан-Фернандо-дель-Валье-де-Катамарка


ПОГОДА в Сан-Фернандо-дель-Валье-де-Катамарке

  • Прогноз погоды в Сан-Фернандо-дель-Валье-де-Катамарке
  • Монитор погоды в Сан-Фернандо-дель-Валье-де-Катамарке

АРХИВ ПОГОДЫ в Сан-Фернандо-дель-Валье-де-Катамарке

Время (UTC), дата Ветер
(напр.,м/с)
 
Видим.   Явления Облачность Т
(С)
Тd
(С)
f
(%)
Тe
(С)
Тes
(С)
Комфортность P
(гПа)
Po
(гПа)
Тmin
(С)
Tmax
(С)
R
(мм)
R24
(мм)
S
(см)
03 13.06 С 3 20 км 9/9 1350 м
[Sc]
+11.2 +9.7 90 +9 +9 1010.3 957.0
06 13.06 С 2 20 км 5/5 1500 м
[Sc]
+9.6 +8.4 92 +8 +8 1009.2 956.0
09 13.06 штиль 0 20 км 8/8 1500 м
[Sc]
+8.6 +7.4 92 +8 +8 1007.8 954.8
12 13.06 С 3 20 км 3/1 1350 м
[Sc Ci fib]
+9.5 +7.3 86 +7 +7 1008.5 955.4 +7.0 +14.8
15 13.06 Ю 3 20 км 3/3 1350 м
[Sc]
+15.4 +5.2 51 +15 +19 1008.1 955.3
18 13.06 ЮЗ 7 20 км 6/6 1200 м
[Sc]
+19.6 +4.9 38 +20 +20 1005.6 953.2
21 13.06 ЮЗ 4 20 км 9/9 1200 м
[Sc]
+20.6 +4.2 34 +21 +21 комфорт 1006.1 953.7
00 14.06 С 1 20 км 10/10 1000 м
[Sc]
+17.4 +11.5 68 +19 +19 1011.4 958.5 +9.3 +21.3
03 14.06 Ю 4 20 км 10/10 1200 м
[Sc]
+16.9 +12.9 77 +17 +17 1014.0 961.4
06 14.06 Ю 3 20 км 10/10 1200 м
[Sc]
+14.1 +10.0 76 +13 +13 1014.7 962.2
09 14.06 СВ 2 20 км 10/10 1200 м
[Sc]
+13.4 +9.2 76 +13 +13 1014.6 962.1
12 14.06 ЮЗ 1 20 км 10/5 1200 м
[Sc Ac As]
+13.0 +7.9 71 +13 +13 1016.7 963.8 +12.4 +21.5
15 14.06 ЮВ 2 20 км 10/10 1050 м
[Sc]
+14.6 +6.2 57 +15 +15 1016.0 963.3
18 14.06 Ю 3 20 км 10/10 1200 м
[Sc]
+15.8 +6.8 55 +16 +16 1012.7 960.0
21 14.06 ЮЗ 3 20 км 10/10 1350 м
[Sc]
+14.2 +6.6 60 +13 +13 1012.2 959.3
00 15.06 Ю 4 20 км 10/10 1200 м
[Sc]
+13.2 +7.3 67 +12 +12 1014.8 961.6 +12.8 +16.0
03 15.06 Ю 2 20 км 10/10 1050 м
[Sc]
+12.2 +7.9 75 +11 +11 1015.9 962.6
06 15.06 Ю 2 20 км 10/10 300 м
[Sc]
+11.2 +8.9 86 +10 +10 1015.7 962.6
09 15.06 Ю 3 5000 м слаб. морось 10/10 210 м
[Frnb]
+10.6 +9.4 92 +8 +8 1016.0 962.6
12 15.06 Ю 4 2500 м слаб. морось 10/10 120 м
[Frnb]
+9.2 +7.6 90 +6 +6 1019.0 965.3 +8.6 +13.3 0.4
15 15.06 ЮВ 2 1700 м слаб. морось 10/10 90 м
[St]
+9.4 +7.4 87 +8 +8 1021.0 967.0
18 15.06 ЮВ 3 10 км осадки на расстоянии {морось} 10/10 840 м
[St]
+10.2 +6.9 80 +8 +8 1018.7 964.9 0.0
21 15.06 Ю 3 15 км осадки на расстоянии 10/10 1020 м
[St]
+10.3 +6.4 77 +9 +9 1019.9 966.0
00 16.06 Ю 3 20 км 10/10 1050 м
[Sc]
+9.2 +4.9 74 +7 +7 1022.9 968.6 +8.8 +10.8
03 16.06 ЮВ 2 20 км 10/10 1350 м
[Sc]
+8.6 +3.2 69 +7 +7 1024.9 970.5
06 16.06 Ю 3 20 км 10/10 1350 м
[Sc]
+7.4 +1.7 67 +5 +5 1024.9 970.4
09 16.06 Ю 3 20 км 8/8 1350 м
[Sc]
+6.4 +0.5 66 +4 +4 1025.0 970.4
12 16.06 В 1 20 км 8/8 1050 м
[Sc]
+6.0 +1.1 71 +6 +6 1027.3 972.5 +5.3 +9.5 0.0
15 16.06 ЮВ 2 20 км 9/9 1140 м
[Sc]
+9.4 -0.3 51 +8 +9 1026.7 972.2
18 16.06 Ю 3 20 км 9/9 1200 м
[Sc]
+11.0 -1.9 41 +10 +10 1023.1 968.8
21 16.06 штиль 0 20 км 9/9 1200 м
[]
+10.8 -1.5 42 +11 +11 1022.7 968.4
00 17.06 С 1 20 км 10/10 1200 м
[Sc]
+8.6 +3.2 69 +8 +8 1024.6 969.8 +5.8 +11.5
03 17.06 С 3 20 км 9/4 1200 м
[Sc Cs]
+7.6 +2.5 70 +5 +5 1024.2 969.7
06 17.06 С 1 20 км 10/6 1200 м
[Sc Cs]
+7.2 +3.1 75 +6 +6 1022.2 967.8
09 17.06 СВ 1 20 км 10/10 1200 м
[Sc]
+6.4 +3.7 83 +5 +5 1021.0 966.6
12 17.06 С 3 20 км 10/10 1200 м
[Sc]
+6.8 +2.6 75 +4 +4 1021.6 967.0 +5.6 +8.8
15 17.06 С 5 20 км 9/9 1200 м
[Sc]
+10.4 +1.7 55 +8 +8 1018.8 964.6
18 17.06 С 6 20 км 10/10 1200 м
[Sc]
+11.8 +2.4 52 +9 +9 1013.5 959.8
21 17.06 Ю 3 20 км 10/10 1200 м
[Sc]
+10.6 +3.0 59 +9 +9 1014.2 960.2
00 18.06 З 1 20 км 10/10 1200 м
[Sc]
+8.6 +3.2 69 +8 +8 1015.9 961.7 +6.6 +12.2
03 18.06 Ю 1 20 км 10/10 1200 м
[Sc]
+8.2 +3.2 71 +8 +8 1017.5 963.4
06 18.06 СВ 3 20 км ясно +3.6 +1.1 84 -0 -0 1017.9 963.6
09 18.06 СЗ 2 20 км ясно +0.6 -0.5 92 -2 -2 1018.3 963.6
12 18.06 С 2 20 км ясно +1.2 -1.6 82 -2 -2 1021.6 966.6 -1.4 +8.8
15 18.06 штиль 0 20 км ясно +12.0 -1.0 41 +12 +21 1021.0 967.0
18 18.06 СВ 2 20 км ясно +16.6 -3.1 26 +17 +23 1015.7 962.0
21 18.06 штиль 0 20 км ясно +17.8 -3.1 24 +18 +18 1015.6 961.7
00 19.06 С 2 20 км ясно +6.8 +0.4 64 +5 +5 1020.3 965.2 +0.8 +19.1
03 19.06 С 5 20 км ясно +6.2 +1.4 71 +2 +2 1021.8 967.4
06 19.06 С 5 20 км ясно +6.6 +0.2 64 +3 +3 1019.6 965.8
09 19.06 СВ 6 20 км ясно +4.4 -0.2 72 -1 -1 1019.9 966.1
12 19.06 С 3 20 км ясно +2.4 -4.7 59 -1 -1 1023.2 968.0 -0.6 +7.0
15 19.06 штиль 0 20 км ясно +16.4 -5.3 22 +16 +26 1021.8 968.0
18 19.06 Ю 5 20 км ясно +20.2 -6.2 16 +20 +23 1019.1 965.8
21 19.06 Ю 2 20 км 1/0
[Ci]
+19.0 -2.2 24 +20 +20 1017.1 963.6

 

Местоположение метеостанции Сан-Фернандо-дель-Валье-де-Катамарка (Аргентина): широта -28.60 долгота -65.76 высота над уровнем моря 454 м.

В архиве по умолчанию представлена погода в Сан-Фернандо-дель-Валье-де-Катамарке за последнюю неделю. Архивные данные за месяц целиком и за предыдущие месяцы, начиная с января 2011 года, Вы можете получить, выбрав интересующий диапазон дат из раскрывающегося списка и нажав кнопку "Ввод!".


*Определитесь, кто Вы:
робот инопланетянин человек

Внимание! Время в таблицах - всемирное. Для получения местного времени необходимо прибавить поправку, которая равна -3 ч.

Смотрите также архив погоды в соседних городах и на ближайших метеорологических станциях:

Погода в Ла-Риохе (Аргентина) (134 км)
Погода в Сантьяго-дель-Эстеро (Аргентина) (171 км)
Погода в Чамикале (Аргентина) (202 км)
Погода в Сан-Мигель-де-Тукумане (Аргентина) (206 км)
Погода в Вилла де Мария дель Рио Секо (Аргентина) (248 км)
Погода в Кордове (Аргентина) (336 км)
Погода в Вилла Долорес (Аргентина) (377 км)
Погода в Пиларе (Аргентина) (385 км)
Погода в Сересе (Аргентина) (396 км)
Погода в Сан-Хуане (Аргентина) (403 км)

Пояснения к столбцам:

Ветер - указаны скорость ветра в м/с - средняя за 10 мин, порывы в срок и между сроками (в фигурных скобках) и направление, откуда дует ветер: С - северный, СВ - северо-восточный, В - восточный, ЮВ - юго-восточный, Ю - южный, ЮЗ - юго-западный, З - западный, СЗ - северо-западный.
Видимость - горизонтальная дальность видимости в метрах или километрах. При видимости от 1 до 10 км при отсутствии осадков обычно наблюдается дымка, при ухудшении видимости до 1 км и менее - туман. В сухую погоду видимость может ухудшаться дымом, пылью или мглою.
Явления - указаны атмосферные явления, наблюдавшиеся в срок или в последний час перед сроком; фигурными скобками обозначены явления, наблюдавшиеся между сроками (за 1-3 часа до срока); квадратными скобками обозначены град или гололедные отложения с указанием их диаметра в мм.
Облачность - указаны через наклонную черту общая и нижняя облачность в баллах и высота нижней границы облаков в метрах; квадратными скобками обозначены формы облаков: Ci - перистые, Cs - перисто-слоистые, Cc - перисто-кучевые, Ac - высококучевые, As - высокослоистые, Sc - слоисто-кучевые, Ns - слоисто-дождевые, Cu - кучевые, Cb - кучево-дождевые. Подробнее классификацию облаков см. в Атласе облаков (PDF).
T - Температура воздуха - температура, измеренная на высоте 2 м над землей.
Td - Температура точки росы - температура, при понижении до которой содержащийся в воздухе водяной пар достигнет насыщения.
f - Относительная влажность воздуха - влажноcть воздуха, измеренная на высоте 2 м над землей.
Te - Эффективная температура - температура, которую ощущает одетый по сезону человек в тени. Характеристика душности погоды. При расчете учитывается влияние влажности воздуха и скорости ветра на теплоощущения человека.
Tes - Эффективная температура на солнце - температура, которую ощущает человек, с поправкой на солнечный нагрев. Характеристика знойности погоды. Зависит от высоты солнца над горизонтом, облачности и скорости ветра. Ночью, в пасмурную погоду, а также при ветре 12 м/с и более поправка равна нулю.
P - Атмосферное давление - приведенное к уровню моря атмосферное давление.
Po - Атмосферное давление - измеренное на уровне метеостанции атмосферное давление.
Tmin - Минимальная температура - минимум температуры воздуха на высоте 2 м над землей.
Tmax - Максимальная температура - максимум температуры воздуха на высоте 2 м над землей.
R - Количество осадков - Количество выпавших осадков за период времени, мм. При наведении курсора мыши на число - период времени, за который выпало указанное количество осадков.
R24 - Количество осадков - Количество выпавших осадков за 24 часа, мм.
S - Снежный покров - Высота снежного покрова, см. При наведении курсора мыши на число - состояние снежного покрова и степень покрытия местности в баллах.